Orbital Elements at Epoch 2459000.5 (2020-May-31.0) TDB
Reference: JPL 36 (heliocentric ecliptic J2000)
Element | Value | Uncertainty (1-sigma) | Units |
e | .1765037206430634 | 2.5455e-08 | |
a | 2.365790610038647 | 6.1757e-09 | au |
q | 1.948219765104403 | 6.1455e-08 | au |
i | .9440465516044835 | 2.9233e-06 | deg |
node | 57.42726172533634 | 0.00019161 | deg |
peri | 199.9232834680168 | 0.00019182 | deg |
M | 325.8078685121816 | 9.4881e-06 | deg |
tp | 2459126.736968477885 (2020-Oct-04.23696848) | 3.5164e-05 | TDB |
period | 1329.115988812492 3.64 | 5.2043e-06 1.425e-08 | d yr |
n | .2708567220846124 | 1.0606e-09 | deg/d |
Q | 2.78336145497289 | 7.2657e-09 | au |
|
| | Orbit Determination Parameters
Additional Information
|